www.pogodaiklimat.ru

Погода и климат >> Архив погоды >> Монголия >> Эрдэнэцагаан


ПОГОДА в Эрдэнэцагаане

  • Прогноз погоды в Эрдэнэцагаане
  • Монитор погоды в Эрдэнэцагаане

АРХИВ ПОГОДЫ в Эрдэнэцагаане

Время (UTC), дата Ветер
(напр.,м/с)
 
Видим.   Явления Облачность Т
(С)
Тd
(С)
f
(%)
Тe
(С)
Тes
(С)
Комфортность P
(гПа)
Po
(гПа)
Тmin
(С)
Tmax
(С)
R
(мм)
R24
(мм)
S
(см)
00 12.09 ЮЗ 8 50 км 8/8 600 м
[Sc]
+13.2 +7.6 69 +11 +11 1010.4 890.0 +12.6
03 12.09 ЮЗ 8 50 км 6/6 600 м
[Cu med, cong]
+19.5 +11.3 59 +20 +21 1006.4 889.2
06 12.09 З 8 50 км 10/10 600 м
[Sc]
+23.2 +13.8 55 +27 +27 душно 1002.0 886.5
09 12.09 З 6 50 км 10/10 600 м
[Sc As op]
+20.8 +13.9 65 +23 +23 комфорт 1002.8 885.6
12 12.09 ЮЗ 4 50 км 9/9 600 м
[Sc]
+18.2 +15.7 85 +18 +18 1004.0 886.0 +23.5
15 12.09 С 6 н/о слаб. дождь 10/10 600 м
[Frnb Ns]
+11.4 +11.2 99 +8 +8 1009.2 887.7
18 12.09 СЗ 6 н/о {дождь} 10/10 600 м
[Sc]
+9.0 +8.4 96 +5 +5 1010.8 889.4
21 12.09 СЗ 2 50 км 8/8 600 м
[Sc]
+7.5 +7.3 99 +5 +5 1014.4 890.7
00 13.09 СЗ 4 50 км 4/4 600 м
[Cu med, cong]
+9.2 +7.6 90 +6 +7 1014.4 892.5 +7.4 3
03 13.09 З 3 50 км 8/8 600 м
[Cu med, cong]
+12.2 +5.0 61 +11 +13 1015.6 893.5
06 13.09 СЗ 4 50 км 4/4 600 м
[Cu hum]
+15.6 +2.5 41 +15 +19 1012.8 893.3
09 13.09 штиль 0 50 км 4/4 600 м
[Cu med, cong]
+16.0 +1.1 36 +16 +17 1012.8 893.0
12 13.09 штиль 0 50 км ясно +11.0 +3.0 58 +11 +11 1016.0 893.5 +16.2
15 13.09 штиль 0 50 км ясно +8.2 +1.1 61 +8 +8 1020.4 897.3
18 13.09 СЗ 3 50 км ясно +7.8 +1.9 66 +5 +5 1017.2 894.2
21 13.09 штиль 0 50 км ясно +7.4 +1.3 65 +7 +7 1017.6 894.1
00 14.09 ЮЗ 4 50 км ясно +12.0 +3.4 56 +10 +12 1015.6 893.9 +7.2
03 14.09 З 6 50 км ясно +19.2 +1.3 30 +19 +23 1012.8 893.5
06 14.09 З 6 50 км 1/1 600 м
[Cu med, cong]
+21.4 -1.9 21 +21 +24 комфорт 1008.4 891.0
09 14.09 З 7 50 км 1/1 600 м
[Cu med, cong]
+20.4 -3.0 20 +20 +20 1006.8 889.0
12 14.09 З 2 50 км 1/1
[Cu med, cong]
+13.6 -7.0 23 +13 +13 1008.8 889.1 +21.6
15 14.09 СЗ 3 50 км ясно +11.0 -0.7 44 +10 +10 1010.0 888.7
18 14.09 ЮЗ 2 50 км ясно +11.2 -0.7 44 +10 +10 1008.0 887.4
21 14.09 ЮЗ 3 50 км ясно +8.6 -0.2 54 +6 +6 1010.0 887.5
00 15.09 СЗ 4 50 км 3/3 600 м
[Cu hum]
+7.8 +4.1 77 +5 +6 1016.0 893.0 +7.5
03 15.09 С 8 50 км 3/3 600 м
[Cu hum]
+9.1 -1.2 48 +5 +7 1016.8 894.2
06 15.09 СЗ 4 50 км 3/3 600 м
[Cu hum]
+10.5 -0.2 47 +8 +13 1017.6 895.0
09 15.09 СЗ 4 50 км 3/3 600 м
[Cu hum]
+12.3 +0.9 46 +11 +11 1016.8 895.0
12 15.09 штиль 0 50 км ясно +6.5 +1.2 69 +6 +6 1020.4 896.2 +12.5
15 15.09 штиль 0 50 км ясно +4.0 0.0 75 +3 +3 1022.0 896.7
18 15.09 ЮЗ 3 50 км ясно +4.1 -1.1 69 +1 +1 1021.2 896.4
21 15.09 З 3 50 км ясно +5.2 -1.0 64 +2 +2 1020.8 895.7
00 16.09 З 4 50 км ясно +9.8 +1.7 57 +7 +9 1018.8 895.7 +3.3
03 16.09 З 4 50 км ясно +15.8 +1.1 37 +15 +22 1015.2 895.4
06 16.09 З 8 50 км 1/1 600 м
[Cu hum]
+19.0 +4.1 37 +19 +20 1012.8 893.6
09 16.09 З 10 50 км 3/3 600 м
[Cu hum]
+19.0 +2.7 34 +18 +18 1011.6 892.7
12 16.09 З 4 50 км ясно +13.3 -1.7 35 +12 +12 1012.8 892.3 +19.3
15 16.09 ЮЗ 4 50 км 3/0
[Ac lent]
+10.0 -1.7 44 +8 +8 1014.0 892.2
18 16.09 ЮЗ 5 50 км 6/0
[Ac trans]
+10.8 -1.2 43 +8 +8 1012.8 891.2
21 16.09 СЗ 6 50 км 8/0
[Ac trans]
+9.8 -0.9 47 +7 +7 1014.0 891.9
00 17.09 С 10 50 км 10/0
[Ac As]
+6.0 +2.3 77 0 0 1020.4 895.6 +5.9
03 17.09 С 8 50 км 4/4 600 м
[Cu med, cong]
+7.6 -0.9 55 +3 +4 1021.6 898.4
06 17.09 СВ 10 50 км ясно +9.4 -5.0 36 +5 +6 1023.6 900.2
09 17.09 СВ 10 50 км ясно +8.6 -6.4 34 +4 +4 1023.6 900.1
12 17.09 штиль 0 50 км ясно +3.6 -8.4 41 +3 +3 1027.6 901.6 +10.0
15 17.09 ЮЗ 3 50 км ясно +3.0 -8.0 44 -0 -0 1028.0 901.9
18 17.09 СЗ 3 50 км ясно +4.0 -4.0 56 +1 +1 1027.6 902.1
21 17.09 СЗ 2 50 км ясно +3.5 -6.7 47 +1 +1 1027.6 901.7
00 18.09 З 8 50 км ясно +8.1 -1.9 49 +4 +4 1026.0 902.3 +2.8
03 18.09 СЗ 4 50 км ясно +12.8 +1.1 45 +11 +18 1025.2 902.7
06 18.09 СЗ 8 50 км 1/0
[Ci sp]
+17.2 +2.5 37 +16 +18 1021.6 900.9
09 18.09 С 3 50 км 8/0
[Ac lent Ci fib]
+17.0 +3.0 39 +17 +18 1020.4 899.8
12 18.09 штиль 0 50 км ясно +11.4 +1.7 51 +11 +11 1022.8 899.6 +17.4
15 18.09 ЮЗ 3 50 км ясно +11.2 +0.9 49 +10 +10 1020.4 897.8
18 18.09 ЮЗ 4 50 км 3/0
[Ac lent]
+13.2 +1.3 44 +12 +12 1018.4 897.0
21 18.09 ЮЗ 5 50 км 6/0
[Ac trans]
+14.0 +0.6 40 +13 +13 1018.0 896.7

 

Местоположение метеостанции Эрдэнэцагаан (Монголия): широта 45.90 долгота 115.36 высота над уровнем моря 1076 м.

В архиве по умолчанию представлена погода в Эрдэнэцагаане за последнюю неделю. Архивные данные за месяц целиком и за предыдущие месяцы, начиная с января 2011 года, Вы можете получить, выбрав интересующий диапазон дат из раскрывающегося списка и нажав кнопку "Ввод!".


*Определитесь, кто Вы:
робот инопланетянин человек

Внимание! Время в таблицах - всемирное. Для получения местного времени необходимо прибавить поправку, которая равна 8 ч.

Смотрите также архив погоды в соседних городах и на ближайших метеорологических станциях:

Погода в Дун-Уджимчин-Ци (Внутренняя Монголия, Китай) (131 км)
Погода в Матаде (Монголия) (143 км)
Погода в Нарэнбаулаге (Внутренняя Монголия, Китай) (171 км)
Погода в Баруун-Урте (Монголия) (182 км)
Погода в Баянчагане (Внутренняя Монголия, Китай) (212 км)
Погода в Шилин-Хото (Внутренняя Монголия, Китай) (225 км)
Погода в Си-Уджимчин-Ци (Внутренняя Монголия, Китай) (229 км)
Погода в Баяндэлгэре (Монголия) (233 км)
Погода в Чойбалсане (Монголия) (250 км)
Погода в Халхин-Голе (Монголия) (313 км)

Пояснения к столбцам:

Ветер - указаны скорость ветра в м/с - средняя за 10 мин, порывы в срок и между сроками (в фигурных скобках) и направление, откуда дует ветер: С - северный, СВ - северо-восточный, В - восточный, ЮВ - юго-восточный, Ю - южный, ЮЗ - юго-западный, З - западный, СЗ - северо-западный.
Видимость - горизонтальная дальность видимости в метрах или километрах. При видимости от 1 до 10 км при отсутствии осадков обычно наблюдается дымка, при ухудшении видимости до 1 км и менее - туман. В сухую погоду видимость может ухудшаться дымом, пылью или мглою.
Явления - указаны атмосферные явления, наблюдавшиеся в срок или в последний час перед сроком; фигурными скобками обозначены явления, наблюдавшиеся между сроками (за 1-3 часа до срока); квадратными скобками обозначены град или гололедные отложения с указанием их диаметра в мм.
Облачность - указаны через наклонную черту общая и нижняя облачность в баллах и высота нижней границы облаков в метрах; квадратными скобками обозначены формы облаков: Ci - перистые, Cs - перисто-слоистые, Cc - перисто-кучевые, Ac - высококучевые, As - высокослоистые, Sc - слоисто-кучевые, Ns - слоисто-дождевые, Cu - кучевые, Cb - кучево-дождевые. Подробнее классификацию облаков см. в Атласе облаков (PDF).
T - Температура воздуха - температура, измеренная на высоте 2 м над землей.
Td - Температура точки росы - температура, при понижении до которой содержащийся в воздухе водяной пар достигнет насыщения.
f - Относительная влажность воздуха - влажноcть воздуха, измеренная на высоте 2 м над землей.
Te - Эффективная температура - температура, которую ощущает одетый по сезону человек в тени. Характеристика душности погоды. При расчете учитывается влияние влажности воздуха и скорости ветра на теплоощущения человека.
Tes - Эффективная температура на солнце - температура, которую ощущает человек, с поправкой на солнечный нагрев. Характеристика знойности погоды. Зависит от высоты солнца над горизонтом, облачности и скорости ветра. Ночью, в пасмурную погоду, а также при ветре 12 м/с и более поправка равна нулю.
P - Атмосферное давление - приведенное к уровню моря атмосферное давление.
Po - Атмосферное давление - измеренное на уровне метеостанции атмосферное давление.
Tmin - Минимальная температура - минимум температуры воздуха на высоте 2 м над землей.
Tmax - Максимальная температура - максимум температуры воздуха на высоте 2 м над землей.
R - Количество осадков - Количество выпавших осадков за период времени, мм. При наведении курсора мыши на число - период времени, за который выпало указанное количество осадков.
R24 - Количество осадков - Количество выпавших осадков за 24 часа, мм.
S - Снежный покров - Высота снежного покрова, см. При наведении курсора мыши на число - состояние снежного покрова и степень покрытия местности в баллах.